New Philadelphia, OH

6:33 PM EDT on August 25, 2016 (GMT -0400)
Clever

Weather History for KPHD - April, 2014

Change the Weather History Date:

Wednesday, April 2, 2014

  Actual Average Record
Temperature  
Mean Temperature 52 °F 46 °F  
Max Temperature 61 °F 58 °F 84 °F (1986)
Min Temperature 43 °F 35 °F 12 °F (1964)
Degree Days  
Heating Degree Days 13 19  
Month to date heating degree days 23 38  
Since 1 July heating degree days 5619 5024  
Cooling Degree Days 0 0  
Month to date cooling degree days 0 0  
Year to date cooling degree days 0 1  
Growing Degree Days 2 (Base 50)    
Moisture  
Dew Point 38 °F    
Average Humidity 63    
Maximum Humidity 89    
Minimum Humidity 36    
Precipitation  
Precipitation 0.26 in 0.12 in 1.90 in (1970)
Month to date precipitation 0.26 0.23  
Year to date precipitation 5.96 8.23  
Sea Level Pressure  
Sea Level Pressure 30.13 in    
Wind  
Wind Speed 4 mph (WNW)    
Max Wind Speed 15 mph    
Max Gust Speed 20 mph    
Visibility 10 miles    
Events Rain    
T = Trace of Precipitation, MM = Missing Value Source: NWS Daily Summary

Daily Weather History Graph

Daily Weather History Graph

Search for Another Location

Airport or City:

Trip Planner

Search our weather history database for the weather conditions in past years. The results will help you decide how hot, cold, wet, or windy it might be!

Date:

Astronomy

Apr. 02, 2014 Rise Set
Actual Time 7:07 AM EDT 7:51 PM EDT
Civil Twilight 6:40 AM EDT 8:18 PM EDT
Nautical Twilight 6:07 AM EDT 8:51 PM EDT
Astronomical Twilight 5:34 AM EDT 9:25 PM EDT
Moon 8:50 AM EDT (4/2) 11:13 PM EDT (4/2)
Length of Visible Light 13h 38m
Length of Day
12h 43m
Waxing Crescent, 10% of the Moon is Illuminated
Apr 2
Waxing Crescent
Apr 7
First Quarter
Apr 15
Full
Apr 22
Last Quarter
Apr 29
New

Hourly Weather History & Observations

Time (EDT) Temp. Windchill Dew Point Humidity Pressure Visibility Wind Dir Wind Speed Gust Speed Precip Events Conditions
12:53 AM 54.0 °F - 30.9 °F 41% 30.08 in 10.0 mi NW 11.5 mph - N/A   Mostly Cloudy
1:53 AM 52.0 °F - 30.9 °F 45% 30.07 in 10.0 mi NW 9.2 mph - N/A   Scattered Clouds
2:53 AM 51.1 °F - 30.9 °F 46% 30.07 in 10.0 mi Variable 5.8 mph - N/A   Overcast
3:53 AM 50.0 °F - 30.9 °F 48% 30.08 in 10.0 mi WNW 6.9 mph - N/A   Overcast
4:53 AM 46.9 °F - 34.0 °F 61% 30.08 in 8.0 mi NNW 4.6 mph - 0.01 in Rain Light Rain
5:53 AM 43.0 °F 41.3 °F 39.9 °F 89% 30.10 in 6.0 mi South 3.5 mph - 0.14 in Rain Rain
6:53 AM 43.0 °F - 39.9 °F 89% 30.14 in 6.0 mi Calm Calm - 0.10 in Rain Light Rain
8:53 AM 44.1 °F - 39.9 °F 85% 30.16 in 8.0 mi Calm Calm - 0.00 in   Overcast
9:26 AM 44.1 °F - 41.0 °F 89% 30.16 in 9.0 mi Calm Calm - N/A   Overcast
9:38 AM 44.1 °F 41.5 °F 39.9 °F 85% 30.17 in 10.0 mi WSW 4.6 mph - N/A   Overcast
9:53 AM 45.0 °F 42.6 °F 41.0 °F 86% 30.17 in 10.0 mi SSW 4.6 mph - N/A   Overcast
10:11 AM 45.0 °F 43.5 °F 41.0 °F 86% 30.16 in 10.0 mi South 3.5 mph - N/A   Overcast
10:21 AM 46.0 °F - 39.9 °F 79% 30.17 in 10.0 mi Calm Calm - N/A   Overcast
10:53 AM 46.9 °F - 39.9 °F 77% 30.17 in 10.0 mi Calm Calm - N/A   Mostly Cloudy
11:13 AM 48.0 °F - 41.0 °F 77% 30.16 in 10.0 mi WSW 4.6 mph - N/A   Overcast
11:24 AM 48.9 °F - 41.0 °F 74% 30.16 in 10.0 mi NW 3.5 mph - N/A   Mostly Cloudy
11:53 AM 50.0 °F - 41.0 °F 71% 30.17 in 10.0 mi WSW 4.6 mph - N/A   Mostly Cloudy
12:01 PM 50.0 °F - 41.0 °F 71% 30.17 in 10.0 mi Variable 3.5 mph - N/A   Mostly Cloudy
12:53 PM 53.1 °F - 42.1 °F 66% 30.16 in 10.0 mi Variable 3.5 mph - N/A   Mostly Cloudy
1:02 PM 54.0 °F - 41.0 °F 62% 30.15 in 10.0 mi Calm Calm - N/A   Scattered Clouds
1:53 PM 55.9 °F - 42.1 °F 60% 30.15 in 10.0 mi Calm Calm - N/A   Mostly Cloudy
2:53 PM 59.0 °F - 41.0 °F 51% 30.12 in 10.0 mi WNW 6.9 mph - N/A   Mostly Cloudy
3:53 PM 60.1 °F - 39.0 °F 46% 30.12 in 10.0 mi Variable 5.8 mph - N/A   Scattered Clouds
4:53 PM 60.1 °F - 36.0 °F 41% 30.12 in 10.0 mi West 4.6 mph - N/A   Mostly Cloudy
6:53 PM 59.0 °F - 35.1 °F 41% 30.09 in 10.0 mi Calm Calm - N/A   Clear
7:53 PM 57.9 °F - 34.0 °F 41% 30.11 in 10.0 mi North 3.5 mph - N/A   Scattered Clouds
8:53 PM 55.0 °F - 36.0 °F 49% 30.12 in 10.0 mi Calm Calm - N/A   Overcast
9:53 PM 54.0 °F - 41.0 °F 62% 30.13 in 10.0 mi Calm Calm - N/A   Overcast
10:53 PM 53.1 °F - 32.0 °F 45% 30.12 in 10.0 mi NE 8.1 mph - N/A   Overcast
11:53 PM 51.1 °F - 30.9 °F 46% 30.11 in 10.0 mi NE 6.9 mph - N/A   Overcast